Theta_e
331 332 333 332 334 335 337 333 334 340 341 339 337 337 336 344 360 355 352 349 348 347 351 354 355 356 356 357 358 359 359 358 358 359 358 355 354 348 338 333 337 335 347 349
336 335 334 335 335 337 334 335 337 351 351 339 336 334 335 341 356 351 349 347 347 347 347 348 346 347 349 348 347 349 348 346 342 339 340 339 339 336 337 333 340 340 330 326
337 335 335 336 337 339 339 338 338 351 349 341 337 335 339 356 352 348 345 343 342 341 341 341 342 343 342 341 337 338 338 333 330 340 342 341 336 336 339 337 332 329 326 323
342 339 342 338 337 339 339 339 337 348 346 339 338 343 355 352 349 347 345 342 341 341 340 339 329 328 329 330 331 332 332 330 329 331 331 334 336 335 329 327 327 325 322 315
345 344 338 339 339 339 338 337 340 341 345 348 350 349 351 349 348 346 343 341 341 336 334 332 332 333 333 332 331 330 330 330 329 327 324 321 320 319 316 314 314 313 314 313
341 341 341 338 338 337 337 338 341 337 343 345 344 335 340 347 346 342 341 340 338 337 336 334 333 333 333 332 331 330 330 329 325 320 316 314 314 314 315 315 317 318 316 315
336 337 337 334 339 341 343 347 345 348 348 346 342 345 344 343 342 341 339 338 338 336 335 334 332 331 328 328 327 327 326 324 320 317 317 317 317 318 319 318 318 317 317 318
339 340 343 334 337 345 341 340 347 347 348 349 344 341 343 341 340 339 337 335 332 330 329 327 326 326 326 326 326 325 323 322 322 321 320 319 318 318 320 322 323 323 324 325
338 338 331 334 332 332 333 334 345 344 344 344 344 343 341 339 337 334 332 329 326 326 326 326 326 326 327 326 326 325 324 322 321 319 319 321 323 325 325 326 328 328 329 328
336 334 334 333 332 332 335 342 343 344 343 342 341 339 337 334 331 329 327 327 326 325 325 326 326 326 326 327 326 326 325 325 325 324 325 326 326 324 323 322 322 324 325 325
334 334 334 333 331 335 339 340 341 340 340 338 336 334 330 327 326 326 325 325 325 325 325 326 326 326 325 325 325 325 325 324 324 323 322 322 323 323 322 322 321 320 320 321
330 330 332 333 333 335 335 333 333 333 331 330 328 326 326 325 324 325 325 324 325 326 326 326 325 325 325 325 324 324 322 321 321 319 319 320 320 321 323 323 321 319 319 320
331 332 333 333 333 333 331 329 328 327 325 324 324 323 323 324 324 324 325 325 325 325 324 324 324 324 322 320 319 319 319 318 318 319 320 320 320 321 323 322 321 320 319 320
330 332 333 332 331 331 329 328 327 324 323 322 322 322 323 324 324 324 324 324 322 322 320 318 315 314 316 316 317 317 318 320 321 321 319 320 320 320 320 320 321 320 321 322
325 328 330 332 330 328 326 326 324 322 321 322 322 323 324 323 323 323 321 320 319 318 319 318 316 313 314 316 316 316 317 318 319 319 320 320 319 320 320 320 321 321 321 321
326 326 325 331 327 325 324 323 322 322 322 322 323 323 322 322 322 322 321 321 320 318 320 319 317 316 313 314 315 312 313 312 316 318 319 321 321 320 321 321 321 321 321 321
325 329 329 327 325 323 323 323 322 323 323 322 323 322 321 321 322 321 320 319 318 319 319 318 318 316 315 313 315 315 315 313 314 315 315 317 319 321 320 319 319 320 320 320
324 324 328 325 325 324 323 323 323 322 322 322 322 321 321 321 321 320 318 317 317 317 318 318 317 315 316 314 315 316 316 312 314 314 314 316 318 319 319 318 318 318 317 317
327 326 325 325 325 323 324 323 323 323 323 322 321 320 321 320 319 318 316 316 316 317 317 319 315 314 316 316 315 315 315 313 313 313 313 315 316 316 316 315 313 313 314 314
323 320 322 320 320 320 319 322 322 322 321 321 321 320 320 318 317 316 316 316 317 317 318 317 315 315 314 316 315 315 314 314 313 313 314 315 314 315 316 314 313 312 313 314
321 321 322 321 321 321 321 321 321 321 320 320 319 319 318 317 316 316 316 316 316 318 316 315 315 315 315 314 315 314 313 314 310 311 312 312 311 311 311 311 313 313 313 313
321 321 322 320 320 319 319 321 320 320 319 319 319 317 316 316 315 315 315 316 316 315 316 315 314 314 314 314 314 315 314 314 313 312 312 313 313 312 311 311 312 313 313 313
321 320 319 319 318 320 321 320 320 320 319 317 316 315 316 317 317 318 318 316 315 316 316 315 314 314 313 313 314 315 315 315 315 314 313 314 314 313 312 310 312 312 313 313
320 321 320 320 320 318 320 320 320 318 317 317 315 318 318 316 316 317 315 316 314 316 315 315 315 314 314 314 315 317 316 315 315 315 315 314 314 313 311 310 311 312 312 312
319 318 316 316 316 316 317 317 319 319 318 318 316 316 316 315 315 315 315 316 317 316 315 315 314 314 314 314 316 316 316 316 315 315 314 312 311 310 310 310 310 310 311 311
318 318 317 317 317 318 319 319 318 317 317 316 316 313 312 313 315 315 315 315 315 314 314 314 314 313 314 314 314 314 315 316 315 314 311 311 311 310 309 309 309 309 309 310
317 318 318 318 319 319 317 317 316 316 316 315 314 312 313 315 315 316 315 313 313 315 316 314 314 314 315 315 314 313 315 316 314 313 311 311 312 312 310 310 310 309 308 309
Wind_Speed
9 11 15 9 11 8 2 7 4 11 11 11 18 21 32 27 27 34 37 33 30 26 27 27 29 29 29 28 25 22 21 18 16 14 14 9 2 2 5 10 13 19 21 20
7 10 14 15 11 8 5 6 11 8 3 11 15 31 24 26 23 28 23 25 23 22 21 21 22 21 19 18 18 15 17 18 16 12 12 7 13 18 18 20 19 16 23 17
7 9 11 8 8 6 4 2 2 3 7 11 5 12 15 23 27 27 28 26 26 25 22 19 14 9 9 8 9 8 9 11 12 7 12 17 25 41 33 26 24 16 21 23
4 10 7 7 11 7 7 6 9 6 10 12 17 22 27 28 27 27 24 24 22 16 13 13 17 16 14 10 7 7 6 2 2 7 10 5 12 11 14 15 21 24 26 28
4 7 10 7 5 6 6 6 2 6 8 17 17 14 16 22 23 23 21 18 14 14 15 14 12 12 10 8 6 5 2 3 7 8 9 8 8 12 17 21 22 24 25 26
7 9 5 7 16 6 6 4 8 7 21 21 12 3 2 9 26 30 22 15 15 13 11 13 11 9 10 7 5 4 5 7 10 12 14 15 16 17 18 20 23 27 29 29
5 5 2 13 16 18 4 4 19 15 35 37 15 16 35 24 27 27 20 18 14 15 13 9 7 4 5 5 5 7 10 12 13 14 15 16 18 20 23 25 27 28 29 29
3 4 4 18 10 6 9 21 16 25 25 35 39 35 33 33 27 27 23 17 12 11 7 4 1 2 3 4 8 11 13 13 14 15 17 18 20 20 20 22 24 25 26 27
4 5 4 8 14 19 19 21 12 31 33 33 31 34 34 29 24 20 20 16 13 11 8 3 2 5 6 9 11 14 16 18 19 19 19 16 15 17 19 20 21 23 24 23
1 0 9 14 12 6 6 13 13 20 29 32 30 32 28 25 23 21 18 13 7 4 3 2 4 7 7 8 11 15 18 17 18 17 16 15 14 20 22 22 25 28 30 30
3 11 20 20 14 13 14 15 17 22 22 28 31 27 27 24 18 14 10 7 2 1 3 2 5 7 10 13 16 18 19 19 19 20 21 21 19 20 24 25 26 27 27 29
4 3 9 14 16 13 18 23 25 27 24 21 23 24 20 18 13 10 7 5 4 1 3 6 9 12 14 17 19 21 23 21 23 24 25 24 22 22 20 25 24 24 23 24
5 10 16 19 18 18 21 23 22 21 19 20 16 16 13 9 6 5 5 1 2 6 9 13 15 18 20 21 21 22 23 21 20 20 19 20 22 23 27 28 25 24 19 19
4 9 14 18 21 20 21 21 21 19 15 11 12 11 10 8 4 3 2 5 7 10 11 11 13 15 13 13 14 15 16 19 20 21 20 22 24 25 28 30 27 26 23 24
11 3 4 15 21 25 26 25 22 18 14 13 10 9 6 5 3 1 4 6 9 9 11 12 19 19 17 15 15 16 19 21 21 24 19 20 23 24 26 25 24 27 28 30
3 4 7 22 26 25 24 21 21 19 14 9 9 6 3 2 3 1 3 4 8 9 9 13 16 21 25 16 13 15 27 25 21 22 21 21 21 24 23 22 24 26 28 29
2 8 19 23 23 20 19 16 20 18 16 11 11 7 6 4 3 5 4 9 12 7 10 15 18 24 24 20 17 24 30 29 20 23 22 21 20 20 22 23 26 28 28 28
8 12 16 20 16 14 18 20 21 18 14 11 9 8 6 7 5 5 9 14 11 11 9 15 17 21 20 19 18 23 29 28 23 23 23 21 20 21 21 22 25 29 31 31
16 17 15 18 18 23 2 20 16 13 8 4 3 4 7 6 7 10 14 12 12 13 12 12 15 17 19 16 20 22 29 25 25 22 21 20 18 17 23 22 25 27 27 29
21 19 20 12 15 5 9 7 9 7 6 6 6 6 6 4 8 12 10 12 17 20 16 13 14 15 19 17 21 24 25 23 30 22 18 18 19 20 25 28 31 28 27 27
22 20 24 19 21 19 13 8 9 10 7 5 4 7 7 11 9 8 12 16 15 9 10 14 14 18 19 19 23 23 16 18 20 18 17 14 18 21 25 27 26 26 25 26
15 20 22 15 16 12 5 5 4 7 5 4 5 8 10 8 7 10 11 15 10 17 15 12 18 16 22 19 23 19 17 21 22 19 15 17 19 23 27 26 25 24 23 23
8 7 7 8 9 11 11 7 5 6 5 7 5 5 9 10 13 16 19 13 15 15 15 18 16 20 21 21 22 18 19 22 23 23 19 17 21 25 30 27 22 19 17 19
6 7 7 6 9 8 8 12 1 5 4 5 10 11 14 12 14 13 14 15 18 18 16 18 19 20 22 20 21 18 20 21 24 25 21 19 23 27 28 23 20 17 17 16
5 5 5 3 3 3 10 11 10 6 6 8 12 10 9 11 10 12 13 13 15 19 28 27 20 18 20 17 16 17 16 16 20 13 13 18 19 20 20 18 17 16 16 15
7 7 5 4 5 5 5 7 6 5 8 10 7 5 8 7 7 11 12 17 21 29 25 23 20 21 18 18 18 21 15 17 5 5 16 11 20 19 18 19 24 22 17 15
5 5 4 2 6 4 6 4 7 3 6 7 5 7 9 12 8 8 12 20 25 20 19 21 18 13 10 14 14 8 9 7 8 11 16 10 21 19 18 19 19 22 23 18
Wind_Direction
280 297 297 269 247 236 58 258 306 202 145 167 141 123 126 238 120 116 121 130 131 119 107 108 112 117 121 124 134 146 162 169 184 194 203 202 211 314 345 357 335 350 304 301
278 292 295 297 303 210 231 320 21 112 101 184 174 146 172 206 100 97 97 105 110 111 114 113 111 115 116 112 111 125 135 133 126 125 115 72 349 327 315 327 313 287 303 308
272 267 287 311 288 141 137 116 212 212 234 154 154 164 195 137 124 114 114 114 113 115 112 107 104 118 114 104 99 86 99 122 140 186 274 276 266 273 292 269 277 277 289 298
284 335 288 254 48 52 85 16 25 43 130 158 152 192 148 139 128 124 129 127 123 116 114 108 112 111 113 111 99 100 104 104 346 355 13 336 288 280 267 282 273 289 293 294
52 299 291 326 56 68 74 312 107 65 136 91 106 97 92 130 132 134 136 135 126 120 117 121 111 108 102 93 92 89 31 305 295 301 308 307 284 276 279 281 283 286 288 290
166 225 265 20 346 222 135 272 331 167 154 132 99 308 208 138 154 141 139 134 134 135 136 113 94 116 122 116 136 164 229 267 286 294 298 300 303 299 295 296 298 297 298 299
211 219 100 356 349 331 54 266 329 343 142 151 150 155 155 162 144 137 128 128 145 144 133 132 164 177 165 191 228 250 265 278 288 292 295 300 301 301 300 299 300 300 302 303
69 54 165 344 19 60 302 335 44 75 101 136 142 143 148 152 146 135 134 137 137 126 119 104 296 302 300 294 285 290 295 301 302 303 304 305 304 304 306 310 314 315 318 320
154 194 198 49 61 348 350 336 63 108 117 120 125 131 138 137 131 132 143 130 121 122 121 127 287 306 307 309 306 304 306 307 308 311 315 316 315 316 317 318 317 313 309 303
74 164 198 177 130 127 39 52 96 110 123 132 123 128 126 127 130 128 131 138 136 124 111 26 321 307 304 297 296 299 303 309 313 320 324 320 306 303 307 305 294 289 289 292
162 178 200 200 174 142 102 90 85 88 105 119 123 127 125 115 112 107 116 128 131 20 19 332 291 299 300 296 295 294 294 301 302 304 299 297 297 296 298 297 305 307 298 298
210 196 131 137 126 131 113 105 106 110 108 107 109 105 112 106 108 115 104 71 83 153 256 276 281 281 283 287 290 294 298 302 303 304 301 300 301 306 304 300 309 314 299 302
344 103 119 139 132 138 127 117 117 113 104 102 100 100 96 97 85 77 106 124 270 284 282 280 283 287 291 292 292 297 301 308 316 320 322 316 307 304 302 306 306 315 319 311
45 109 116 142 142 147 140 132 122 117 111 106 112 107 107 101 116 163 227 270 285 288 300 316 328 327 326 332 330 325 320 315 318 324 315 320 320 317 312 312 308 308 317 310
320 203 164 173 156 149 142 141 134 131 128 121 117 130 141 137 147 202 318 356 1 358 355 357 3 360 348 338 333 330 327 323 321 322 323 321 318 317 315 315 312 303 300 303
262 220 281 171 153 149 144 138 138 133 135 136 159 169 159 155 164 103 25 22 13 359 329 321 339 353 354 350 356 2 357 343 319 320 319 320 318 320 324 324 320 319 316 313
188 131 149 149 153 150 150 155 158 149 146 149 157 147 156 161 171 187 258 310 327 340 317 311 319 338 341 342 346 348 345 345 340 331 322 318 314 316 318 316 311 309 310 311
286 293 174 149 136 143 146 127 139 135 137 160 172 170 180 211 217 279 293 315 311 303 293 305 321 331 335 343 331 328 335 338 330 334 328 324 316 313 313 314 311 307 306 305
101 105 124 137 139 121 63 135 124 127 135 170 170 164 213 242 281 304 309 306 307 303 312 288 317 328 321 330 330 326 328 330 330 327 323 320 326 326 326 322 324 319 315 315
99 90 79 116 132 98 207 141 137 125 136 164 185 222 247 279 309 303 305 302 310 311 301 289 321 315 321 312 315 319 322 320 327 326 320 331 331 333 321 320 325 324 317 318
124 116 110 133 132 144 176 152 145 148 153 170 225 238 273 291 302 291 300 309 322 326 314 316 311 314 313 314 319 320 316 304 336 340 335 342 350 341 333 326 323 324 321 319
127 141 146 153 151 146 158 145 155 135 163 191 249 277 291 305 306 302 305 310 294 314 306 301 315 314 314 312 319 311 302 307 311 326 331 323 327 332 336 336 332 328 325 327
142 145 155 170 175 163 168 146 174 189 218 273 286 291 295 297 296 304 305 297 299 308 296 307 308 313 315 306 313 310 306 296 303 311 317 305 303 320 331 335 333 334 339 344
152 160 170 176 184 194 194 156 175 277 255 289 294 280 277 301 314 304 320 312 317 305 301 306 311 310 307 313 311 309 313 318 309 303 320 328 312 320 325 331 331 332 334 341
242 245 229 219 183 103 193 192 206 234 263 267 284 299 302 302 316 331 325 318 305 310 317 313 304 303 308 317 303 307 325 324 318 311 310 326 345 339 343 340 341 338 336 340
228 214 222 228 194 202 240 226 236 250 267 292 309 329 330 321 334 302 304 328 324 327 324 317 323 313 272 305 298 311 309 327 298 305 345 34 11 17 21 30 24 13 359 349
173 177 146 192 243 192 132 218 225 266 314 287 312 333 316 311 287 271 329 354 348 342 334 331 320 303 298 288 307 285 315 290 281 346 10 5 5 8 16 16 11 11 11 13